Back to catalog

STARLINK-32151

AliveCommunicationsVLEO
NORAD 60299·PAYLOAD·🇺🇸 United States

Launched Jul 28, 2024 from Cape Canaveral Space Force Station

Loading…

Next Passes (next 24 hours)

TLE

FreshSource: CelesTrak SupGP

Epoch: Sep 14, 2026, 20:37 UTC

1 60299C 24132X   26257.85951389 -.00033003  00000+0 -97584-3 0  2571
2 60299  53.1583 224.1933 0001182  93.3708 329.7521 15.34383061    13

Track STARLINK-32151 in real time with AllMySat

Download on the App Store